Weather History for FBSK - June, 2013

Change the Weather History Date:

Friday, June 14, 2013

  Actual Average Record
Temperature  
Mean Temperature 58 °F -  
Max Temperature 80 °F 70 °F 80 °F (2013)
Min Temperature 37 °F 40 °F 33 °F (1997)
Degree Days  
Heating Degree Days 6    
Growing Degree Days 8 (Base 50)    
Moisture  
Dew Point 26 °F    
Average Humidity 33    
Maximum Humidity 65    
Minimum Humidity 12    
Precipitation  
Precipitation 0.00 in - - ()
Sea Level Pressure  
Sea Level Pressure 30.15 in    
Wind  
Wind Speed 4 mph ()    
Max Wind Speed 10 mph    
Max Gust Speed 18 mph    
Averages and records for this station are not official NWS values.
T = Trace of Precipitation, MM = Missing Value Source: Averaged Metar Reports

Daily Weather History Graph

Daily Weather History Graph

Search for Another Location

Airport or City:

Trip Planner

Search our weather history database for the weather conditions in past years. The results will help you decide how hot, cold, wet, or windy it might be!

Date:

Astronomy

Jun. 14, 2013 Rise Set
Actual Time 6:57 AM CAT 5:35 PM CAT
Civil Twilight 6:32 AM CAT 6:00 PM CAT
Nautical Twilight 6:04 AM CAT 6:28 PM CAT
Astronomical Twilight 5:36 AM CAT 6:56 PM CAT
Moon 10:46 AM CAT (6/14) 10:41 PM CAT (6/14)
Length of Visible Light 11h 27m
Length of Day
10h 37m
Waxing Crescent, 28% of the Moon is Illuminated
Jun 14
Waxing Crescent
Jun 16
First Quarter
Jun 23
Full
Jun 30
Last Quarter
Jul 8
New

Hourly Weather History & Observations

Time (CAT) Temp. Windchill Dew Point Humidity Pressure Visibility Wind Dir Wind Speed Gust Speed Precip Events Conditions
12:00 AM 48.2 °F - 30.2 °F 50% 30.15 in - West 4.6 mph - N/A   Clear
1:00 AM 48.2 °F - 30.2 °F 50% 30.15 in - West 6.9 mph - N/A   Clear
2:00 AM 44.6 °F 40.7 °F 28.4 °F 53% 30.15 in - WSW 6.9 mph - N/A   Clear
3:00 AM 44.6 °F 41.4 °F 28.4 °F 53% 30.15 in - WNW 5.8 mph - N/A   Clear
5:00 AM 44.6 °F 43.1 °F 28.4 °F 53% 30.15 in - WSW 3.5 mph - N/A   Clear
6:00 AM 39.2 °F - 28.4 °F 65% 30.15 in - WNW 2.3 mph - N/A   Clear
7:00 AM 37.4 °F 33.8 °F 26.6 °F 65% 30.18 in - West 4.6 mph - N/A   Clear
8:00 AM 46.4 °F - 28.4 °F 50% 30.18 in - Variable 2.3 mph - N/A   Clear
9:00 AM 57.2 °F - 30.2 °F 36% 30.18 in - WSW 3.5 mph - N/A   Clear
10:00 AM 68.0 °F - 30.2 °F 24% 30.18 in - North - - N/A   Clear
11:00 AM 71.6 °F - 30.2 °F 22% 30.18 in - Variable 2.3 mph - N/A   Clear
12:00 PM 75.2 °F - 32.0 °F 21% 30.18 in - Variable 3.5 mph - N/A   Clear
1:00 PM 78.8 °F - 28.4 °F 16% 30.15 in - Variable 3.5 mph - N/A   Clear
2:00 PM 78.8 °F - 24.8 °F 14% 30.09 in - Variable 6.9 mph 18.4 mph N/A   Clear
3:00 PM 80.6 °F - 23.0 °F 12% 30.09 in - West 10.4 mph - N/A   Clear
4:00 PM 80.6 °F - 23.0 °F 12% 30.09 in - West 6.9 mph - N/A   Clear
5:00 PM 78.8 °F - 23.0 °F 13% 30.09 in - WSW 8.1 mph - N/A   Clear
6:00 PM 69.8 °F - 21.2 °F 16% 30.09 in - SW 5.8 mph - N/A   Clear
7:00 PM 64.4 °F - 21.2 °F 19% 30.12 in - SSW 5.8 mph - N/A   Clear
8:00 PM 59.0 °F - 21.2 °F 23% 30.15 in - SSW 5.8 mph - N/A   Clear
9:00 PM 55.4 °F - 23.0 °F 29% 30.15 in - West 3.5 mph - N/A   Clear
10:00 PM 53.6 °F - 23.0 °F 30% 30.18 in - Variable 2.3 mph - N/A   Clear
11:00 PM 51.8 °F - 23.0 °F 33% 30.18 in - West 5.8 mph - N/A   Clear